Weather Service Report


345 
ASUS45 KABQ 210510
RWRNM 
WEATHER ROUNDUP FOR NEW MEXICO
NATIONAL WEATHER SERVICE ALBUQUERQUE NM
1100 PM MDT SUN APR 20 2014

NOTE: "FAIR" MEANS FEW OR NO CLOUDS BELOW 12,000 FEET AGL WITH NO
       SIGNIFICANT WEATHER OR OBSTRUCTIONS TO VISION.

      THIS PRODUCT IS RELEASED AS TWO VERSIONS.  ONE VERSION NEAR
      THE TOP OF THE HOUR CONTAINING PRELIMINARY DATA FROM ALBUQUERQUE
      AND OTHER STATIONS.  A FINAL VERSION WITH ADDITIONAL DATA IS 
      ISSUED ABOUT 10 MINUTES AFTER THE HOUR.
 
NMZ501-503-504-510>518-210600-
NORTHWEST PLATEAU/NORTHCENTRAL MOUNTAINS
  
CITY           SKY/WX    TMP DP  RH WIND       PRES   REMARKS
FARMINGTON     CLEAR     58  28  32 NW5       30.13R                  
LOS ALAMOS     PTCLDY    55  32  42 N9        30.22R                  
SANTA FE       CLOUDY    54  34  46 S3        30.15R                  
TAOS           CLOUDY    45  39  81 NE5       30.24S                  
ANGEL FIRE     MOCLDY    39  36  87 CALM      30.30R                  

$$
NMZ402-403-502-505>509-210600-
WESTCENTRAL MOUNTAINS/SOUTHWEST MOUNTAINS
  
CITY           SKY/WX    TMP DP  RH WIND       PRES   REMARKS
GALLUP         CLEAR     47  21  35 CALM      30.22R                  
GRANTS         CLEAR     54  30  40 CALM      30.22R                  
SILVER CITY    CLEAR     54  39  58 NW12      30.20S                  

$$
NMZ407-409-411-412-210600-
SOUTHERN DESERTS
  
CITY           SKY/WX    TMP DP  RH WIND       PRES   REMARKS
LORDSBURG      FAIR      59  43  55 W5        30.14R                  
DEMING         PTCLDY    60  41  49 W6        30.13R                  
LAS CRUCES     CLEAR     59  32  35 W7        30.13S                  
HOLLOMAN AFB   PTCLDY    59  42  52 SE2       30.09S                  
ALAMOGORDO     CLEAR     59  37  44 CALM      30.11R                  
T OR C         CLEAR     58  41  53 NW7       30.13R                  

$$
NMZ519>523-210600-
CENTRAL VALLEYS/CENTRAL HIGHLANDS
  
CITY           SKY/WX    TMP DP  RH WIND       PRES   REMARKS
ALBUQUERQUE    MOCLDY    64  36  35 S10       30.12R                  
DOUBLE EAGLE   PTCLDY    55  25  31 W10       30.15R                  
MORIARTY ARPT  MOCLDY    50  37  62 E3        30.17R                  
CLINES CORNERS CLOUDY    52  41  66 SE9       30.19S                  
BELEN          FAIR      55  37  50 SW7       30.12S                  
SOCORRO        FAIR      56  43  61 SW6       30.11S                  

$$
NMZ524>526-539-540-210600-
SOUTHCENTRAL MOUNTAINS
  
CITY           SKY/WX    TMP DP  RH WIND       PRES   REMARKS
RUIDOSO        CLEAR     50  36  57 W3        30.24R                  

$$
NMZ527>531-210600-
NORTHEAST HIGHLANDS/NORTHEAST PLAINS
  
CITY           SKY/WX    TMP DP  RH WIND       PRES   REMARKS
LAS VEGAS      MOCLDY    48  43  82 NW9       30.21R                  
RATON          PTCLDY    48  40  73 NW6       30.16S                  
CLAYTON        CLEAR     55  40  56 W8        30.07S                  

$$
NMZ532>537-210600-
EASTCENTRAL PLAINS
  
CITY           SKY/WX    TMP DP  RH WIND       PRES   REMARKS
TUCUMCARI      PTCLDY    57  42  57 W9        30.04S                  
CANNON AFB     PTCLDY    57  43  60 NW6       30.07R                  
CLOVIS AIRPORT   N/A     52  45  76 W9        30.09S                  

$$
NMZ028-029-538-210600-
SOUTHEAST PLAINS
  
CITY           SKY/WX    TMP DP  RH WIND       PRES   REMARKS
ROSWELL        CLEAR     64  41  42 W5        30.04S                  
ARTESIA        CLEAR     63  41  45 W13       30.04S                  
CARLSBAD       CLEAR     63  46  54 W8        30.02S                  
HOBBS          CLEAR     57  43  58 SW6       30.05F                  


$$

Return to Home page


Western Regional Climate Center, wrcc@dri.edu